1396101030884,0.000164174
1396101090884,0.000163444
1396101150884,0.000162613
1396101210884,0.000163105
1396101270884,0.000164350
1396101330884,0.000163493
1396101390884,0.000165008
1396101450884,0.000166982
1396101510884,0.000168266
1396101570884,0.000169609
1396101630894,0.000167358
1396101690894,0.000169656
1396101750894,0.000168257
1396101810894,0.000168675
1396101870894,0.000168892
1396101930894,0.000167034
1396101990894,0.000167325
1396102050894,0.000166402
1396102110894,0.000165286
1396102170894,0.000167550
1396102230894,0.000165318
1396102290894,0.000167278
1396102350894,0.000166212
1396102410894,0.000163571
1396102470894,0.000163785
1396102530894,0.000164291
1396102590894,0.000165387
1396102650894,0.000165261
1396102710894,0.000164981
1396102770894,0.000163706
1396102830894,0.000163971
1396102890895,0.000165452
1396102950894,0.000167818
1396103010894,0.000166735
1396103070894,0.000166177
1396103130894,0.000166921
1396103190894,0.000166504
1396103250894,0.000173864
1396103310894,0.000194382
1396103370894,0.000197008
1396103430894,0.000187345
1396103490894,0.000182645
1396103550894,0.000178158
1396103610894,0.000171543
1396103670894,0.000171604
1396103730894,0.000169930
1396103790894,0.000169951
1396103850894,0.000168525
1396103910894,0.000169852
1396103970894,0.000168787
1396104030894,0.000169377
1396104090894,0.000167952
1396104150894,0.000167300
1396104210895,0.000166889
1396104270895,0.000166847
1396104330894,0.000166122
1396104390894,0.000167783
1396104450894,0.000165431
1396104510894,0.000166010
1396104570894,0.000165165
1396104630894,0.000164961
1396104690894,0.000164028
1396104750894,0.000164190
1396104810894,0.000162964
1396104870894,0.000164636
1396104930894,0.000162416
1396104990894,0.000167022
1396105050894,0.000163681
1396105110894,0.000165253
1396105170894,0.000164040
1396105230905,0.000162065
1396105290905,0.000163471
1396105350905,0.000162597
1396105410905,0.000165171
1396105470905,0.000164744
1396105530905,0.000164573
1396105590905,0.000164280
1396105650905,0.000164335
1396105710905,0.000162354
1396105770905,0.000164659
1396105830905,0.000163967
1396105890905,0.000164524
1396105950905,0.000165246
1396106010905,0.000164088
1396106070905,0.000164365
1396106130905,0.000163814
1396106190905,0.000163311
1396106250905,0.000164569
1396106310905,0.000165690
1396106370905,0.000163438
1396106430905,0.000165167
1396106490905,0.000165007
1396106550905,0.000163622
1396106610905,0.000164720
1396106670905,0.000165907
1396106730905,0.000164956
1396106790905,0.000163025
1396106850905,0.000164324
1396106910905,0.000164297
1396106970905,0.000164051
1396107030905,0.000165630
1396107090905,0.000165272
1396107150905,0.000165162
1396107210905,0.000163566
1396107270905,0.000165124
1396107330905,0.000163643
1396107390905,0.000165986
1396107450905,0.000166537
1396107510905,0.000166706
1396107570905,0.000164668
1396107630905,0.000162889
1396107690905,0.000163809
1396107750905,0.000164812
1396107810905,0.000164541
1396107870905,0.000164194
1396107930905,0.000164707
1396107990905,0.000164347
1396108050905,0.000163614
1396108110905,0.000166106
1396108170905,0.000165268
1396108230905,0.000163674
1396108290905,0.000164665
1396108350905,0.000164642
1396108410905,0.000163466
1396108470905,0.000164173
1396108530905,0.000164092
1396108590905,0.000165134
1396108650905,0.000163504
1396108710905,0.000163719
1396108770905,0.000163554
1396108830915,0.000165885
1396108890915,0.000164060
1396108950915,0.000165579
1396109010915,0.000164105
1396109070915,0.000166109
1396109130915,0.000166472
1396109190915,0.000165442
1396109250915,0.000168352
1396109310915,0.000165835
1396109370915,0.000166239
1396109430915,0.000164469
1396109490915,0.000165022
1396109550915,0.000164289
1396109610915,0.000163369
1396109670915,0.000163640
1396109730915,0.000166378
1396109790915,0.000164436
1396109850915,0.000165199
1396109910915,0.000165291
1396109970915,0.000164235
1396110030915,0.000166035
1396110090915,0.000165688
1396110150915,0.000166873
1396110210915,0.000173444
1396110270915,0.000175514
1396110330915,0.000174888
1396110390915,0.000168713
1396110450915,0.000170856
1396110510915,0.000165559
1396110570915,0.000165601
1396110630915,0.000166039
1396110690915,0.000165353
1396110750915,0.000166286
1396110810915,0.000167296
1396110870915,0.000164551
1396110930915,0.000166260
1396110990915,0.000166031
1396111050915,0.000167618
1396111110915,0.000165748
1396111170915,0.000168202
1396111230915,0.000167128
1396111290915,0.000168114
1396111350915,0.000168453
1396111410915,0.000170155
1396111470915,0.000169694
1396111530915,0.000169313
1396111590915,0.000172199
1396111650915,0.000171702
1396111710915,0.000169333
1396111770915,0.000170606
1396111830915,0.000168558
1396111890915,0.000167307
1396111950915,0.000167544
1396112010915,0.000166569
1396112070915,0.000165322
